Regional Weather Roundup
Issued by NWS

Home | Current Version | Previous Version | Text Only | Print | Product List | Glossary On
Versions: 1 2 3 4 5 6 7 8 9 10 11 12 13 14 15 16 17 18 19 20 21 22 23 24 25 26 27 28 29 30 31 32 33 34 35 36 37 38 39 40 41 42 43 44 45 46 47 48 49 50
000
ASUS45 KBOU 190307
RWRCO

WEATHER ROUNDUP FOR COLORADO
NATIONAL WEATHER SERVICE DENVER/BOULDER CO
900 PM MDT SAT APR 18 2015

NOTE: "FAIR" INDICATES FEW OR NO CLOUDS BELOW 12000 FEET WITH NO
SIGNIFICANT WEATHER AND/OR OBSTRUCTIONS TO VISIBILITY.

COZ001>005-013-030-031-190400-
...NORTHWEST COLORADO...

CITY           SKY/WX    TMP DP  RH WIND       PRES   REMARKS
CRAIG          CLOUDY    36  32  85 CALM      30.04S
HAYDEN         CLOUDY    34  30  86 CALM      30.04R
MEEKER         MOCLDY    35  32  88 S5        30.05S WCI  31
MOUNT WERNER   NOT AVBL
STEAMBOAT SPGS CLOUDY    32  32  99 CALM      30.03R
WALDEN         CLOUDY    32  28  86 NW14      30.03R WCI  22
$$

COZ006>008-011-190400-
...WEST CENTRAL VALLEYS...

CITY           SKY/WX    TMP DP  RH WIND       PRES   REMARKS
GRAND JUNCTION PTCLDY    40  38  93 SE10      30.05R
MONTROSE       MOCLDY    40  36  86 S5        30.07R
EAGLE          CLOUDY    37  36  93 N7        30.05R
RIFLE          CLOUDY    34  32  92 E5        30.06R WCI  30
DELTA          MOCLDY    41  38  86 N8        30.07R
NUCLA          MOCLDY    45  36  70 SE3       30.07R
$$

COZ017>023-064>068-190400-
...SOUTHWEST COLORADO...

CITY           SKY/WX    TMP DP  RH WIND       PRES   REMARKS
DURANGO        PTCLDY    48  21  34 N9        29.98R
CORTEZ         PTCLDY    50  34  54 W14       30.01R
PAGOSA SPRINGS CLOUDY    38  30  75 CALM      29.99R
TELLURIDE      NOT AVBL
WOLF CREEK PAS LGT SNOW  21  18  86 NE12G37   30.06R WCI   9
$$

COZ009-010-012-014-032>034-037-058>063-190400-
...CENTRAL COLORADO...

CITY           SKY/WX    TMP DP  RH WIND       PRES   REMARKS
ASPEN          LGT SNOW  31  30  96 N5        30.02S FOG     WCI  26
BUENA VISTA    CLOUDY    37  23  56 NW6       29.96R
COPPER MTN     CLOUDY    25  19  80 W17G24    30.02S WCI  11
BERTHOUD PASS  CLOUDY    16   9  73 N18G33    30.02S WCI  -1
COTTONWOOD PAS MOCLDY    32  21  64 N7        29.99R WCI  26
GUNNISON       PTCLDY    34  25  69 CALM      30.02R
KREMMLING      CLOUDY    36  27  69 W3        30.02R
LEADVILLE      CLOUDY    25  21  85 N6        29.99R WCI  18
MONARCH PASS     N/A     19  18  93 MISG      30.11R
SALIDA         MOCLDY    39  28  65 CALM      30.02R
SUNLIGHT       SNOW     N/A N/A N/A N6        30.12R VSB 1/4
WILKERSON PASS SNOW      23  21  93 NE9G16    30.02R VSB 1/2 WCI  13
$$

COZ069>075-190400-
...SAN LUIS VALLEY/SANGRE DE CRISTO MOUNTAINS...

CITY           SKY/WX    TMP DP  RH WIND       PRES   REMARKS
ALAMOSA        MOCLDY    36  32  85 W6        29.94R
LA VETA PASS   MOCLDY    27  23  86 SW7       29.96R WCI  19
SAGUACHE       MOCLDY    36  27  69 N13G18    29.96R
$$

COZ035-036-038>040-190400-
...NORTHERN COLORADO FRONT RANGE...

CITY           SKY/WX    TMP DP  RH WIND       PRES   REMARKS
DENVER INTL AP MOCLDY    44  36  73 NW17      29.93R
DMNS CITY PARK   N/A     42  33  69 NW3       29.94R
AURORA         MOCLDY    42  35  76 NW13      29.94R
FRONT RANGE AP MOCLDY    45  37  76 NW10      29.93R
ERIE MUNI ARPT PTCLDY    42  35  78 N6        29.94R
BOULDER MUN AP PTCLDY    43  34  70 SW5       29.94R
CENTENNIAL     MOCLDY    39  34  82 NW9       29.93R
BROOMFIELD     MOCLDY    41  36  81 NW7       29.95R
FORT COLLINS   CLEAR     43  30  61 NW13      29.96R
LONGMONT       CLEAR     40  36  84 NW3       29.96R
$$

COZ041-046-047-076>085-087-088-190400-
...PIKES PEAK/PALMER DIVIDE AND SOUTHERN FOOTHILLS...

CITY           SKY/WX    TMP DP  RH WIND       PRES   REMARKS
COLO. SPRINGS  MOCLDY    38  34  85 NW16G24   29.92S
A. F. ACADEMY  CLOUDY    36  35  94 N16       29.92S
ELLICOTT       MOCLDY   N/A N/A N/A N10       29.90R
FALCON         LGT RAIN  36  33  90 NW17G24   29.92S
FORT CARSON    CLOUDY    39  34  83 N12       29.91R
LIMON          LGT RAIN  41  36  82 N13       29.88R
MONUMENT HILL  FLURRIES  32  32 100 NW15G22   29.92S WCI  22
TRINIDAD       PTCLDY    40  32  73 W7        29.90R
$$

COZ042>045-048>051-090-091-190400-
...NORTHEAST COLORADO...

CITY           SKY/WX    TMP DP  RH WIND       PRES   REMARKS
GREELEY ARPT   MOCLDY    45  32  61 N15       29.95R
AKRON          MOCLDY    42  40  92 NW12      29.87S
BURLINGTON     NOT AVBL
WRAY           CLOUDY    49  41  75 N16       29.83S
STERLING       CLOUDY    46  41  81 N14       29.87R
HOLYOKE        CLOUDY    48  43  81 N14       29.85R
FORT MORGAN    MOCLDY    45  37  76 N13       29.91R
$$

COZ086-089-092>099-190400-
...SOUTHEAST COLORADO...

CITY           SKY/WX    TMP DP  RH WIND       PRES   REMARKS
PUEBLO         MOCLDY    46  36  68 NW12      29.89R
LA JUNTA       CLOUDY    49  35  58 W9        29.85R
LAMAR          CLOUDY    49  38  65 N10       29.83R
SPRINGFIELD      N/A     40  36  86 W6        29.84S
$$



USA.gov is the U.S. government's official web portal to all federal, state and local government web resources and services.